Location: Barrialito
(10.3588°N, 66.9747°W)
Time: 15:16:37
(UTC+00:00)

Cosmos 1862 Rocket - Pass Details

Date: 05 July 2022
Orbit: 603 x 633 km, 82.5° (Epoch: 13 August)

Event Time Altitude Azimuth Distance (km) Brightness Sun altitude
Rises 09:07:17 0° 349° (N) 2,844 7.2 -15.1°
Reaches altitude 10° 09:09:31 10° 345° (NNW) 1,943 6.3 -14.6°
Maximum altitude 09:13:43 56° 267° (W) 719 3.6 -13.7°
Drops below altitude 10° 09:17:58 10° 188° (S) 1,955 5.8 -12.7°
Sets 09:20:13 0° 184° (S) 2,864 6.7 -12.2°
